Header for Extended Forecast Station List Page

Search by: ID | Name | Date | Parm | Value | Avg | % Avg
Sort by: ID | Name | Date | Parm | Value | Avg | % Avg

Enter search or view all records.

Click on id for station plot
#IDNameDateParmValueAvg% Avg
0BULO3BULLY CREEK-BULLY CREEK DAM07-22-2021INFLOW (KAF)M0M
1MYKO3MCKAY CREEK-NEAR PILOT ROCK07-22-2021DISCHARGE (KAF)0151
2WRMO3MALHEUR-WARM SPRINGS DAM07-22-2021INFLOW (KAF)54109
3RIDI1WILLOW CREEK-RIRIE DAM07-22-2021INFLOW (KAF)2636
4BERO3MALHEUR-AGENCY VALLEY DAM07-22-2021INFLOW (KAF)6785
5TNAW1TEANAWAY-BELOW FORKS07-22-2021DISCHARGE (KAF)81087
6TCHW1WALLA WALLA-NEAR TOUCHET07-22-2021DISCHARGE (KAF)61155
7GIBO3UMATILLA-NEAR GIBBON07-22-2021DISCHARGE (KAF)101277
8UMAO3UMATILLA-NEAR UMATILLA07-22-2021DISCHARGE (KAF)4212334
9PDTO3UMATILLA-AT PENDLETON07-22-2021DISCHARGE (KAF)121489
10LWRI1LITTLE WOOD-LITTLE WOOD DAM07-22-2021INFLOW (KAF)51534
11SATI1ST MARIES-NEAR SANTA07-22-2021DISCHARGE (KAF)131876
12KADW1KACHESS-KACHESS DAM07-22-2021INFLOW (KAF)2718153
13DEDI1DEADWOOD-NEAR LOWMAN07-22-2021INFLOW (KAF)122059
14BUDW1BUMPING-BUMPING LAKE DAM07-22-2021INFLOW (KAF)2322103
15HOTI1BRUNEAU-NEAR HOT SPRINGS07-22-2021DISCHARGE (KAF)92240
16KEDW1YAKIMA-KEECHELUS LAKE07-22-2021INFLOW (KAF)3828139
17MACI1BIG LOST-MACKAY RESERVOIR NEAR MACKAY07-22-2021INFLOW (KAF)242887
18MAGI1BIG WOOD-MAGIC DAM07-22-2021INFLOW (KAF)72924
19STRM8ST. REGIS-NEAR ST. REGIS07-22-2021DISCHARGE (KAF)253180
20PIHI1PORTNEUF-AT POCATELLO07-22-2021DISCHARGE (KAF)133143
21ARDW1ENTIAT-NEAR ARDENVOIR07-22-2021DISCHARGE (KAF)233567
22MONO3NF JOHN DAY-AT MONUMENT07-22-2021DISCHARGE (KAF)243766
23HWRI1BIG LOST-AT HOWELL RANCH NEAR CHILLY07-22-2021DISCHARGE (KAF)174042
24DLGM8CLARK FORK-AT DEER LODGE07-22-2021DISCHARGE (KAF)294664
25OWYO3OWYHEE-OWYHEE DAM07-22-2021INFLOW (KAF)325162
26WSRI1WEISER-NEAR WEISER07-22-2021DISCHARGE (KAF)445185
27HALI1BIG WOOD-AT HAILEY07-22-2021DISCHARGE (KAF)295849
28SERO3JOHN DAY-AT SERVICE CK07-22-2021DISCHARGE (KAF)356255
29RILW1TIETON-RIMROCK LAKE NEAR RIMROCK07-22-2021INFLOW (KAF)7067105
30CSDI1NF PAYETTE-CASCADE DAM07-22-2021INFLOW (KAF)616792
31RCCM8ROCK CREEK-NEAR CLINTON07-22-2021DISCHARGE (KAF)636991
32EASW1YAKIMA-AT EASTON07-22-2021DISCHARGE (KAF)647289
33ARAI1SF BOISE-ANDERSON RANCH DAM07-22-2021INFLOW (KAF)587478
34CLUW1CLE ELUM-CLE ELUM LAKE07-22-2021INFLOW (KAF)7878100
35CHEI1FALL RIVER-NEAR CHESTER07-22-2021DISCHARGE (KAF)717989
36CLFW1NACHES-NEAR CLIFFDEL07-22-2021DISCHARGE (KAF)8685101
37HODO3HOOD-NEAR TUCKER BRIDGE07-22-2021DISCHARGE (KAF)949895
38NACW1NACHES-NEAR NACHES07-22-2021DISCHARGE (KAF)10412186
39PATW1METHOW-NEAR PATEROS07-22-2021DISCHARGE (KAF)9813672
40IPDI1HENRYS FORK-ISLAND PARK DAM07-22-2021INFLOW (KAF)10514573
41BIGI1BOISE-AT GLENWOOD BRIDGE07-22-2021DISCHARGE (KAF)12314585
42MILI1SNAKE-AT MILNER07-22-2021DISCHARGE (KAF)360151238
43UNDW1WHITE SALMON-NEAR UNDERWOOD07-22-2021DISCHARGE (KAF)13115982
44LAUW1KETTLE-AT LAURIER07-22-2021DISCHARGE (KAF)8716054
45JLKW4SNAKE-JACKSON LAKE AT DAM07-22-2021INFLOW (KAF)11116467
46PRTI1PRIEST-NEAR PRIEST RIVER07-22-2021DISCHARGE (KAF)13116678
47PARW1YAKIMA-NEAR PARKER07-22-2021DISCHARGE (KAF)15416692
48TEAI1TETON-NEAR ST. ANTHONY07-22-2021DISCHARGE (KAF)12816677
49BONM8BLACKFOOT-NEAR BONNER07-22-2021DISCHARGE (KAF)15918188
50PITW1KLICKITAT-NEAR PITT07-22-2021DISCHARGE (KAF)14919377
51TRYO3GRANDE RONDE-TROY07-22-2021DISCHARGE (KAF)10620552
52PARI1BOISE-NEAR PARMA07-22-2021DISCHARGE (KAF)18722185
53COEI1COEUR D ALENE-COEUR D ALENE LAKE07-22-2021INFLOW (KAF)18423379
54BITM8BITTERROOT-NEAR MISSOULA07-22-2021DISCHARGE (KAF)18423479
55CHDW1CHELAN-LAKE CHELAN DAM07-22-2021INFLOW (KAF)14325157
56HHWM8SF FLATHEAD-HUNGRY HORSE DAM07-22-2021INFLOW (KAF)18626072
57WGCM8MF FLATHEAD-NEAR WEST GLACIER07-22-2021DISCHARGE (KAF)18126967
58PESW1WENATCHEE-AT PESHASTIN07-22-2021DISCHARGE (KAF)21229572
59TONW1OKANOGAN-NEAR TONASKET07-22-2021DISCHARGE (KAF)16831653
60ANTI1HENRYS FORK-AT ST. ANTHONY07-22-2021DISCHARGE (KAF)27732186
61FCFM8NF FLATHEAD-NEAR COLUMBIA FALLS07-22-2021DISCHARGE (KAF)18732358
62DWRI1NF CLEARWATER-DWORSHAK DAM07-22-2021INFLOW (KAF)25937769
63REXI1HENRYS FORK-AT REXBURG07-22-2021DISCHARGE (KAF)31937984
64ABOM8CLARK FORK-ABOVE MISSOULA07-22-2021DISCHARGE (KAF)32539582
65EMMI1PAYETTE-NEAR EMMETT07-22-2021DISCHARGE (KAF)25640763
66KIOW1YAKIMA-AT KIONA07-22-2021DISCHARGE (KAF)41846790
67ORFI1CLEARWATER-AT OROFINO07-22-2021DISCHARGE (KAF)37952472
68UMTW1YAKIMA-AT UMTANUM07-22-2021DISCHARGE (KAF)537529101
69BFTI1SNAKE-NEAR BLACKFOOT07-22-2021DISCHARGE (KAF)716578124
70SNAI1SNAKE-AT BLACKFOOT07-22-2021DISCHARGE (KAF)709583122
71LLKW1SPOKANE-AT LONGLAKE07-22-2021INFLOW (KAF)43861272
72BELM8CLARK FORK-BELOW MISSOULA07-22-2021DISCHARGE (KAF)51063580
73JKSW4SNAKE-NEAR JACKSON07-22-2021DISCHARGE (KAF)950786121
74SRGM8CLARK FORK-AT ST REGIS07-22-2021DISCHARGE (KAF)64083277
75ALPW4SNAKE-NEAR ALPINE07-22-2021DISCHARGE (KAF)1046937112
76SHYI1SNAKE-NEAR SHELLEY07-22-2021DISCHARGE (KAF)1079937115
77SPDI1CLEARWATER-AT SPALDING07-22-2021DISCHARGE (KAF)14231052135
78MODO3DESCHUTES-AT MOODY NR BIGGS07-22-2021DISCHARGE (KAF)1079111197
79SIFI1SNAKE-AB EAGLE ROCK NR IDAHO FALLS07-22-2021DISCHARGE (KAF)11881182100
80CFMM8FLATHEAD-AT COLUMBIA FALLS07-22-2021DISCHARGE (KAF)941123476
81AFRI1SNAKE-AMERICAN FALLS RESERVOIR07-22-2021INFLOW (KAF)13091239106
82WHBI1SALMON-AT WHITEBIRD07-22-2021DISCHARGE (KAF)867126968
83PLDI1SF SNAKE-PALISADES DAM07-22-2021INFLOW (KAF)1274129299
84KERM8FLATHEAD-SELI’Š KSANKA QLISPE’ DAM07-22-2021INFLOW (KAF)979146667
85HEII1SNAKE-NEAR HEISE07-22-2021DISCHARGE (KAF)1580160798
86LYDM8KOOTENAI-LIBBY DAM07-22-2021INFLOW (KAF)1130179063
87SWAI1SNAKE-BELOW SWAN FALLS07-22-2021DISCHARGE (KAF)1980210394
88LEOI1KOOTENAI-AT LEONIA07-22-2021DISCHARGE (KAF)1494229265
89NOXM8CLARK FORK-NOXON RAPIDS DAM07-22-2021INFLOW (KAF)2175299073
90WEII1SNAKE-AT WEISER07-22-2021DISCHARGE (KAF)2775307990
91BRNI1SNAKE-BROWNLEE DAM07-22-2021INFLOW (KAF)2897313492
92CABI1CLARK FORK-CABINET GORGE DAM07-22-2021INFLOW (KAF)2397317376
93ALFW1PEND OREILLE-ALBENI FALLS DAM07-22-2021INFLOW (KAF)2468345172
94ANAW1SNAKE-NEAR ANATONE07-22-2021DISCHARGE (KAF)3719474378
95IHDW1SNAKE-ICE HARBOR DAM07-22-2021INFLOW (KAF)5166582489
96LGDW1SNAKE-LOWER GRANITE DAM07-22-2021INFLOW (KAF)5137586088
97LGSW1SNAKE-LITTLE GOOSE DAM07-22-2021INFLOW (KAF)5154590187
98LMNW1SNAKE-LOWER MONUMENTAL DAM07-22-2021INFLOW (KAF)5166591987
99CHJW1COLUMBIA-CHIEF JOSEPH DAM07-22-2021INFLOW (KAF)151672068373
100WELW1COLUMBIA-WELLS DAM07-22-2021INFLOW (KAF)154532095074
101GCDW1COLUMBIA-GRAND COULEE DAM07-22-2021INFLOW (KAF)158622141874
102RRHW1COLUMBIA-ROCKY REACH DAM07-22-2021INFLOW (KAF)157722149173
103WANW1COLUMBIA-WANAPUM DAM07-22-2021INFLOW (KAF)160872174574
104PRWW1COLUMBIA-PRIEST RAPIDS DAM07-22-2021INFLOW (KAF)160952219173
105MCDW1COLUMBIA-MCNARY DAM07-22-2021INFLOW (KAF)218352888476
106JDAO3COLUMBIA-JOHN DAY DAM07-22-2021INFLOW (KAF)222072936476
107TDAO3COLUMBIA-THE DALLES DAM07-22-2021INFLOW (KAF)227962976577
108BONO3COLUMBIA-BONNEVILLE DAM07-22-2021INFLOW (KAF)231863084475
109BFEI1KOOTENAI-AT BONNERS FERRY07-22-2021STAGE (FT)MMM
110DRMM8CLARK FORK-NR DRUMMOND07-22-2021DISCHARGE (KAF)90MM
111HOPI1PEND OREILLE-PEND OREILLE LAKE NR HOPE07-22-2021LAKE ELEVATION (FT)MMM
112SPOW1SPOKANE-AT SPOKANE07-22-2021DISCHARGE (KAF)288MM
113SJMI1ST JOE-AT ST MARIES07-22-2021STAGE (FT)MMM
114CIBW1COLUMBIA-AT INTL BOUNDARY07-22-2021DISCHARGE (KAF)15329MM
115LUCI1BOISE-LUCKY PEAK DAM07-22-2021INFLOW (KAF)239MM